This is the latest recevied weather packets stored in our database for station/object HASTNG-WX. If no packets are shown the sender has not sent any weather packets the latest 10 day(s).
| Time | Temp. | Humidity | Pressure | Rain* | Wind** | Luminosity | Snow |
|---|---|---|---|---|---|---|---|
| 1777763730 | 7.78° C | 43% | 987.1 hPa | 0 mm | - | - | - |
| 1777762856 | 7.78° C | 43% | 987.1 hPa | 0 mm | - | - | - |
| 1777761930 | 8.33° C | 40% | 987.5 hPa | 0 mm | - | - | - |
| 1777761048 | 8.33° C | 42% | 988.1 hPa | 0 mm | - | - | - |
| 1777760130 | 8.33° C | 42% | 988.1 hPa | 0 mm | - | - | - |
| 1777759255 | 8.33° C | 42% | 988.1 hPa | 0 mm | - | - | - |
| 1777758330 | 8.33° C | 44% | 988.3 hPa | 0 mm | - | - | - |
| 1777757448 | 8.33° C | 39% | 987.9 hPa | 0 mm | - | - | - |
| 1777756530 | 8.33° C | 39% | 987.8 hPa | 0 mm | - | - | - |
| 1777755658 | 8.33° C | 39% | 987.8 hPa | 0 mm | - | - | - |
| 1777754730 | 8.33° C | 42% | 988.2 hPa | 0 mm | - | - | - |
| 1777753848 | 8.33° C | 39% | 988.8 hPa | 0 mm | - | - | - |
| 1777752930 | 8.33° C | 39% | 988.8 hPa | 0 mm | - | - | - |
| 1777752055 | 8.33° C | 39% | 988.8 hPa | 0 mm | - | - | - |
| 1777751130 | 8.33° C | 43% | 988.9 hPa | 0 mm | - | - | - |
| 1777750243 | 8.33° C | 43% | 988.9 hPa | 0 mm | - | - | - |
| 1777749330 | 8.33° C | 43% | 989 hPa | 0 mm | - | - | - |
| 1777748456 | 8.33° C | 43% | 989 hPa | 0 mm | - | - | - |
| 1777747530 | 8.33° C | 45% | 988.8 hPa | 0 mm | - | - | - |
| 1777746649 | 7.78° C | 42% | 988.9 hPa | 0 mm | - | - | - |
| 1777745729 | 8.33° C | 42% | 988.9 hPa | 0 mm | - | - | - |
| 1777744859 | 7.78° C | 42% | 988.9 hPa | 0 mm | - | - | - |
| 1777743929 | 7.78° C | 43% | 989.5 hPa | 0 mm | - | - | - |
| 1777743047 | 7.78° C | 39% | 989.3 hPa | 0 mm | - | - | - |
| 1777742130 | 8.33° C | 39% | 989.3 hPa | 0 mm | - | - | - |
* Rain latest hour (hover to see other rain measurements)
** Current wind speed in m/s (hover to see current wind gust speed)